[[{"header":{"parameterUnit":"m.s-1","parameterCategory":1,"la1":30.2991,"la2":30.254,"lo1":-89.0895,"lo2":-89.0444,"dy":0.0017,"dx":0.0017,"nx":28,"ny":28,"refTime":"2024-12-12T03:00:00:Z","depth":0,"parameterNumber":2,"parameterNumberName":"U-component_of_WINDS"},"data":[0,0,0,0,0,0,0,0,0,0,0,0,0,0,0,0,0,0,0,0,0,0,0,0,0,0,0,0,0,0,0,0,0,0,0,0,0,0,0,0,0,0,0,0,0,0,0,0,0,0,0,0,0,0,0,0,0,0,-3.7489,-3.7489,0,-3.7436,-3.7436,-3.7435,-3.7255,-3.7251,-3.7247,-3.7243,-3.7193,-3.7196,-3.7198,0,0,0,0,0,0,0,0,0,0,0,0,0,-3.7439,-3.7441,-3.749,-3.7489,-3.7488,-3.7436,-3.7436,-3.7435,-3.7256,-3.7251,-3.7246,-3.7242,-3.7192,-3.7195,-3.7198,0,0,0,0,0,0,0,0,0,0,0,0,0,-3.7431,-3.7442,-3.749,-3.7393,-3.7383,-3.7437,-3.7436,-3.7435,-3.7257,-3.7251,-3.7245,-3.7239,-3.7191,-3.7195,-3.7199,-3.7343,0,0,-3.721,-3.7211,0,0,0,0,0,0,0,0,-3.7432,-3.7433,-3.7407,-3.7399,-3.7389,-3.7346,-3.7399,-3.7404,-3.7259,-3.7305,-3.7243,-3.7236,-3.7249,-3.7248,-3.7251,-3.734,-3.7338,-3.721,-3.7212,-3.7214,-3.7215,0,0,0,0,0,0,0,-3.7433,-3.7435,-3.7468,-3.7407,-3.7396,-3.7353,-3.7345,-3.7399,-3.7312,-3.7301,-3.7287,-3.7283,-3.7243,-3.7248,-3.7249,-3.7338,-3.721,-3.7213,-3.7216,-3.7217,-3.7542,-3.7548,0,0,0,0,0,0,-3.7447,-3.7436,-3.747,-3.7467,-3.7396,-3.7359,-3.735,-3.7366,-3.7311,-3.7297,-3.7289,-3.7275,-3.7245,-3.7245,-3.7246,-3.741,-3.7214,-3.7217,-3.7219,-3.7535,-3.7543,-3.755,0,0,0,0,0,0,-3.7446,-3.7451,-3.7472,-3.7448,-3.7447,-3.7366,-3.7386,-3.7368,-3.7373,-3.7302,-3.7286,-3.731,-3.724,-3.7241,-3.732,-3.7406,-3.7219,-3.7222,-3.7528,-3.7538,-3.7546,-3.7741,0,0,0,0,0,0,-3.7446,-3.7452,-3.7506,-3.745,-3.7449,-3.7546,-3.7391,-3.7372,-3.7379,-3.7361,-3.7317,-3.7304,-3.7235,-3.7315,-3.7323,-3.7408,-3.7225,-3.7519,-3.7532,-3.7543,-3.7726,-3.7756,-3.7781,0,0,0,0,0,-3.7444,-3.7564,-3.7509,-3.7514,-3.7514,-3.7551,-3.7551,-3.7468,-3.7387,-3.744,-3.7394,-3.7306,-3.7396,-3.7325,-3.7332,-3.7419,-3.7514,-3.7528,-3.7542,-3.7714,-3.775,-3.778,0,0,0,0,0,0,-3.7632,-3.7554,-3.7493,-3.7598,-3.7583,-3.7521,-3.7585,-3.7509,-3.7517,-3.75,-3.7399,-3.739,-3.7483,-3.7459,-3.7381,-3.7556,-3.744,-3.7457,-3.7568,-3.7601,-3.7628,-3.7632,-3.7228,0,0,0,0,0,-3.7686,-3.7721,-3.7652,-3.7751,-3.7746,-3.7668,-3.7681,-3.7619,-3.7599,-3.7592,-3.7552,-3.7537,-3.7562,-3.758,-3.7599,-3.7722,-3.771,-3.7786,-3.7813,-3.7836,-3.7852,-3.7914,-3.7947,-3.7597,-3.7597,-3.7597,0,0,-3.7797,-3.7759,-3.7788,-3.7788,-3.7768,-3.7808,-3.7663,-3.7712,-3.7741,-3.76,-3.767,-3.7641,-3.7618,-3.7719,-3.7762,-3.7702,-3.7946,-3.7855,-3.7874,-3.7876,-3.7932,-3.7965,-3.7995,-3.7607,-3.7605,-3.7604,0,0,-3.8019,-3.7994,-3.8073,-3.8056,-3.8028,-3.7975,-3.7995,-3.7945,-3.7919,-3.7988,-3.7883,-3.7916,-3.7962,-3.7949,-3.7949,-3.8167,-3.8085,-3.8176,-3.8319,-3.8382,-3.8409,-3.8433,-3.851,-3.8539,-3.8192,-3.8193,-3.8193,0,-3.8161,-3.8215,-3.8124,-3.8179,-3.8182,-3.8054,-3.8134,-3.8123,-3.8104,-3.8109,-3.8042,-3.8095,-3.8071,-3.8167,-3.8221,-3.8225,-3.8244,-3.818,-3.8412,-3.8435,-3.8456,-3.8528,-3.8558,-3.8204,-3.8202,-3.8201,-3.82,0,-3.839,-3.843,-3.8498,-3.848,-3.8491,-3.8559,-3.8478,-3.85,-3.8438,-3.8392,-3.8464,-3.8431,-3.844,-3.8459,-3.8399,-3.8547,-3.851,-3.843,-3.8311,-3.8502,-3.8568,-3.8595,-3.822,-3.8216,-3.8212,-3.821,0,0,-3.8729,-3.8659,-3.8685,-3.8675,-3.8635,-3.8664,-3.8727,-3.8734,-3.8755,-3.8747,-3.8796,-3.8837,-3.8762,-3.8762,-3.87,-3.8755,-3.8928,-3.8666,-3.8664,-3.8715,-3.9088,-3.9148,-3.9182,-3.8875,-3.8879,-3.8883,-3.909,0,-3.8938,-3.9038,-3.8957,-3.9072,-3.9107,-3.8987,-3.9041,-3.9024,-3.8983,-3.9008,-3.8964,-3.8994,-3.8893,-3.8892,-3.8941,-3.8897,-3.9002,-3.8881,-3.892,-3.8922,-3.8927,-3.9216,-3.9279,-3.9476,-3.9115,-3.912,-3.9123,0,-3.9195,-3.9196,-3.9315,-3.9266,-3.9277,-3.9327,-3.9327,-3.9353,-3.9331,-3.9297,-3.9298,-3.922,-3.9279,-3.9164,-3.9243,-3.9163,-3.9175,-3.9155,-3.9161,-3.916,-3.9033,-3.9222,-3.9537,-3.9566,-3.9163,-3.9159,-3.9157,0,-3.9428,-3.946,-3.9533,-3.9529,-3.9475,-3.9512,-3.9492,-3.9463,-3.9473,-3.9474,-3.9479,-3.9489,-3.9494,-3.9503,-3.9431,-3.9354,-3.9519,-3.9398,-3.9493,-3.9496,-3.9532,-3.9531,-3.9852,-3.9543,-3.9543,-3.9542,-3.9542,0,-3.967,-3.9746,-3.9637,-3.9683,-3.9765,-3.9673,-3.9758,-3.9725,-3.9701,-3.9738,-3.9637,-3.9675,-3.9578,-3.9606,-3.9551,-3.9624,-3.9628,-3.9603,-3.9587,-3.9611,-3.9614,-3.9616,-3.96,-3.955,-3.9548,-3.9547,-3.9545,0,-3.9943,-3.9873,-3.9945,-3.9888,-3.9875,-3.9938,-3.9889,-3.993,-3.9883,-3.9932,-3.9938,-3.9865,-3.9894,-3.9823,-3.9841,-3.9804,-3.9909,-3.9872,-3.9916,-3.9904,-4.0003,-3.9994,-4.0335,-4.0375,-4.0043,-4.0046,-4.0049,0,-4.0101,-4.0156,-4.0104,-4.0121,-4.0105,-4.0135,-4.0144,-4.0056,-4.007,-4.0048,-4.0092,-4.0111,-4.0121,-4.0173,-4.0122,-4.0136,-4.0097,-4.0216,-4.0099,-4.0121,-4.0098,-4.0095,-4.0099,-4.024,-4.0244,-4.0247,-4.025,0,-4.0388,-4.035,-4.0365,-4.037,-4.0383,-4.0382,-4.0375,-4.0395,-4.0301,-4.0322,-4.0348,-4.0357,-4.0375,-4.0396,-4.0398,-4.0378,-4.03,-4.0288,-4.031,-4.0334,-4.0357,-4.0345,-3.9981,-4.028,-4.0277,-4.0275,-4.0273,-4.0272,-4.0606,-4.065,-4.0619,-4.064,-4.0625,-4.062,-4.0655,-4.0612,-4.0632,-4.0638,-4.0586,-4.0624,-4.06,-4.0595,-4.0584,-4.0613,-4.0559,-4.0592,-4.06,-4.0609,-4.0625,-4.0354,-4.0613,-4.0612,-4.0611,-4.0611,-4.061,0,-4.0886,-4.0861,-4.0881,-4.0872,-4.0889,-4.0812,-4.08,-4.082,-4.0854,-4.0838,-4.085,-4.0881,-4.0901,-4.0852,-4.0865,-4.0898,-4.0862,-4.0904,-4.09,-4.0896,-4.0673,-4.0651,-4.0933,-4.0933,-4.0933,-4.0933,-4.0932,-4.0932,-4.1034,-4.1103,-4.1062,-4.1123,-4.1097,-4.1131,-4.1131,-4.1127,-4.1113,-4.1152,-4.1167,-4.1134,-4.1106,-4.1115,-4.1131,-4.1116,-4.1125,-4.1179,-4.1152,-4.0944,-4.0912,-4.0882,-4.0861,-4.1182,-4.1183,-4.1373,-4.1375,-4.1376]},{"header":{"parameterUnit":"m.s-1","parameterCategory":1,"la1":30.2991,"la2":30.254,"lo1":-89.0895,"lo2":-89.0444,"dy":0.0017,"dx":0.0017,"nx":28,"ny":28,"refTime":"2024-12-12T03:00:00:Z","depth":0,"parameterNumber":3,"parameterNumberName":"V-component_of_WINDS"},"data":[0,0,0,0,0,0,0,0,0,0,0,0,0,0,0,0,0,0,0,0,0,0,0,0,0,0,0,0,0,0,0,0,0,0,0,0,0,0,0,0,0,0,0,0,0,0,0,0,0,0,0,0,0,0,0,0,0,0,-1.0887,-1.0888,0,-1.0996,-1.0997,-1.0999,-1.1065,-1.1065,-1.1065,-1.1066,-1.1177,-1.118,-1.1182,0,0,0,0,0,0,0,0,0,0,0,0,0,-1.0732,-1.0735,-1.0887,-1.0888,-1.0889,-1.0996,-1.0998,-1.0999,-1.1065,-1.1065,-1.1065,-1.1066,-1.1176,-1.1179,-1.1183,0,0,0,0,0,0,0,0,0,0,0,0,0,-1.0816,-1.0736,-1.0886,-1.0935,-1.094,-1.0996,-1.0998,-1.0999,-1.1064,-1.1065,-1.1065,-1.1066,-1.1175,-1.1179,-1.1183,-1.1198,0,0,-1.1195,-1.1197,0,0,0,0,0,0,0,0,-1.0811,-1.0822,-1.0926,-1.0932,-1.0938,-1.1017,-1.0984,-1.1066,-1.1064,-1.1017,-1.1066,-1.1066,-1.1123,-1.1132,-1.1151,-1.1204,-1.1208,-1.1196,-1.1198,-1.12,-1.1201,0,0,0,0,0,0,0,-1.0805,-1.0817,-1.093,-1.0928,-1.0935,-1.0951,-1.0963,-1.1,-1.1066,-1.1021,-1.1027,-1.1039,-1.1127,-1.1147,-1.1154,-1.121,-1.1195,-1.1199,-1.1202,-1.1203,-1.1279,-1.1279,0,0,0,0,0,0,-1.0792,-1.0812,-1.0926,-1.0933,-1.0874,-1.0953,-1.0967,-1.0991,-1.1066,-1.1078,-1.1038,-1.1041,-1.114,-1.115,-1.1158,-1.1181,-1.12,-1.1203,-1.1206,-1.1279,-1.1279,-1.1279,0,0,0,0,0,0,-1.0789,-1.0802,-1.0922,-1.0874,-1.0891,-1.0955,-1.0982,-1.0993,-1.1014,-1.1079,-1.1091,-1.1047,-1.1141,-1.1153,-1.1188,-1.1186,-1.1205,-1.1209,-1.128,-1.1279,-1.1279,-1.1225,0,0,0,0,0,0,-1.0784,-1.08,-1.0807,-1.0874,-1.0893,-1.095,-1.0982,-1.0995,-1.1021,-1.1026,-1.109,-1.1101,-1.1142,-1.1181,-1.1192,-1.1191,-1.1212,-1.128,-1.128,-1.1279,-1.1228,-1.1223,-1.1219,0,0,0,0,0,-1.0778,-1.0788,-1.0807,-1.0821,-1.0903,-1.095,-1.096,-1.1007,-1.102,-1.1027,-1.1069,-1.1099,-1.1184,-1.1184,-1.1197,-1.1197,-1.1281,-1.128,-1.1279,-1.123,-1.1224,-1.1219,0,0,0,0,0,0,-1.0719,-1.0798,-1.082,-1.0851,-1.0893,-1.0961,-1.0971,-1.1,-1.1039,-1.1042,-1.1099,-1.1112,-1.1141,-1.1173,-1.1172,-1.1216,-1.1236,-1.1237,-1.1194,-1.1189,-1.1185,-1.1177,-1.1215,0,0,0,0,0,-1.071,-1.0741,-1.0808,-1.0829,-1.0849,-1.0906,-1.0928,-1.0961,-1.1006,-1.1024,-1.1069,-1.1111,-1.1147,-1.117,-1.1207,-1.1232,-1.1247,-1.1239,-1.1235,-1.1231,-1.1231,-1.1246,-1.1243,-1.1276,-1.1276,-1.1276,0,0,-1.0691,-1.0738,-1.0754,-1.0819,-1.0855,-1.0886,-1.0921,-1.0952,-1.0975,-1.1029,-1.1065,-1.1098,-1.115,-1.1179,-1.1195,-1.1206,-1.1226,-1.123,-1.1226,-1.1229,-1.1245,-1.1242,-1.1239,-1.1275,-1.1275,-1.1275,0,0,-1.0673,-1.0711,-1.0733,-1.0768,-1.0823,-1.086,-1.0865,-1.0928,-1.0952,-1.0989,-1.1029,-1.1057,-1.1119,-1.1153,-1.1179,-1.1171,-1.12,-1.1182,-1.1159,-1.1173,-1.117,-1.1168,-1.1165,-1.1163,-1.1182,-1.1182,-1.1182,0,-1.0642,-1.0691,-1.074,-1.0769,-1.0796,-1.0845,-1.0867,-1.0899,-1.0962,-1.0979,-1.0992,-1.1069,-1.1107,-1.1145,-1.1143,-1.1162,-1.1169,-1.1175,-1.1167,-1.1165,-1.1164,-1.1162,-1.116,-1.1179,-1.118,-1.118,-1.118,0,-1.065,-1.0683,-1.0694,-1.0753,-1.0781,-1.0806,-1.0859,-1.0881,-1.0911,-1.0946,-1.0982,-1.1029,-1.1076,-1.1088,-1.1117,-1.113,-1.1135,-1.1156,-1.1178,-1.1158,-1.1156,-1.1155,-1.1175,-1.1176,-1.1177,-1.1178,0,0,-1.0599,-1.0684,-1.0688,-1.0715,-1.0777,-1.0803,-1.083,-1.0876,-1.0893,-1.0935,-1.0958,-1.1008,-1.1028,-1.1057,-1.109,-1.1102,-1.1092,-1.1122,-1.1124,-1.1114,-1.1107,-1.1091,-1.1089,-1.1111,-1.1111,-1.1111,-1.1103,0,-1.0589,-1.064,-1.0684,-1.0719,-1.0749,-1.0795,-1.0818,-1.0859,-1.0893,-1.0923,-1.096,-1.0995,-1.1018,-1.1036,-1.105,-1.109,-1.1091,-1.1091,-1.1133,-1.1134,-1.1118,-1.1088,-1.1071,-1.1061,-1.1103,-1.1103,-1.1103,0,-1.0585,-1.0624,-1.0661,-1.0719,-1.0734,-1.0754,-1.0798,-1.0827,-1.0873,-1.0897,-1.0928,-1.0963,-1.0992,-1.101,-1.1051,-1.105,-1.107,-1.1092,-1.1092,-1.1098,-1.1117,-1.1092,-1.1059,-1.1057,-1.1102,-1.1102,-1.1102,0,-1.0542,-1.0604,-1.0634,-1.0656,-1.0725,-1.0738,-1.0767,-1.0814,-1.0838,-1.0877,-1.0893,-1.0935,-1.0958,-1.0989,-1.1033,-1.1043,-1.1069,-1.1091,-1.1089,-1.1088,-1.1093,-1.1092,-1.1061,-1.1106,-1.1106,-1.1106,-1.1106,0,-1.0527,-1.0547,-1.0616,-1.0634,-1.0658,-1.0709,-1.0731,-1.0765,-1.0805,-1.0831,-1.0873,-1.0896,-1.0954,-1.0983,-1.1018,-1.1046,-1.1056,-1.1075,-1.1084,-1.1071,-1.1069,-1.1085,-1.1087,-1.1105,-1.1105,-1.1105,-1.1106,0,-1.0484,-1.0531,-1.0566,-1.0629,-1.0645,-1.0659,-1.0712,-1.0731,-1.0767,-1.0798,-1.0808,-1.0864,-1.0901,-1.0948,-1.1,-1.1023,-1.1047,-1.1061,-1.1031,-1.1036,-1.1031,-1.1031,-1.101,-1.101,-1.1054,-1.1053,-1.1053,0,-1.0471,-1.0488,-1.0551,-1.0571,-1.0599,-1.063,-1.0655,-1.0705,-1.0729,-1.0782,-1.0794,-1.0834,-1.0868,-1.0924,-1.0969,-1.1008,-1.1023,-1.1013,-1.103,-1.1015,-1.1023,-1.1021,-1.1022,-1.1009,-1.1008,-1.1008,-1.1007,0,-1.0442,-1.0464,-1.0498,-1.054,-1.0568,-1.0603,-1.064,-1.0654,-1.0711,-1.0735,-1.0773,-1.0799,-1.0851,-1.089,-1.0935,-1.0965,-1.0995,-1.1002,-1.1003,-1.099,-1.0972,-1.0981,-1.1019,-1.1002,-1.1003,-1.1003,-1.1003,-1.1003,-1.0414,-1.0431,-1.0478,-1.0513,-1.0546,-1.058,-1.06,-1.0638,-1.067,-1.0716,-1.0744,-1.078,-1.0825,-1.0888,-1.0916,-1.0945,-1.0957,-1.0959,-1.096,-1.0959,-1.0955,-1.0967,-1.0953,-1.0953,-1.0954,-1.0954,-1.0954,0,-1.0387,-1.0419,-1.0452,-1.0502,-1.053,-1.0556,-1.0598,-1.0619,-1.065,-1.069,-1.0722,-1.0764,-1.0802,-1.0849,-1.0889,-1.0903,-1.0918,-1.0912,-1.0911,-1.0917,-1.0942,-1.0936,-1.0899,-1.0899,-1.0899,-1.0899,-1.0899,-1.0899,-1.0377,-1.0406,-1.0433,-1.0478,-1.051,-1.0546,-1.0567,-1.0598,-1.0629,-1.0675,-1.0706,-1.0736,-1.0778,-1.0822,-1.0856,-1.0869,-1.0882,-1.0871,-1.0888,-1.0911,-1.0916,-1.092,-1.0915,-1.0874,-1.0874,-1.0861,-1.0861,-1.0861]}]]